Time,TemperatureF,DewpointF,PressureIn,WindDirection,WindDirectionDegrees,WindSpeedMPH,WindSpeedGustMPH,Humidity,HourlyPrecipIn,Conditions,Clouds,dailyrainin,SoftwareType,DateUTC
2013-07-30 00:02:00,64.0,61.9,30.14,NW,317,0.0,0.0,93,0.00,,,0.00,Wunderground v.1.15,2013-07-30 04:02:00,
2013-07-30 00:06:00,63.9,61.8,30.15,NW,317,0.0,0.0,93,0.00,,,0.00,Wunderground v.1.15,2013-07-30 04:06:00,
2013-07-30 00:12:00,63.8,61.7,30.14,NW,317,0.0,0.0,93,0.00,,,0.00,Wunderground v.1.15,2013-07-30 04:12:00,
2013-07-30 00:14:00,63.7,61.6,30.14,NW,317,0.0,0.0,93,0.00,,,0.00,Wunderground v.1.15,2013-07-30 04:14:00,
2013-07-30 00:20:00,63.7,61.9,30.15,NW,317,0.0,0.0,94,0.00,,,0.00,Wunderground v.1.15,2013-07-30 04:20:00,
2013-07-30 00:28:00,63.6,61.8,30.15,NW,317,0.0,0.0,94,0.00,,,0.00,Wunderground v.1.15,2013-07-30 04:28:00,
2013-07-30 00:34:00,63.4,61.6,30.15,NW,317,0.0,1.0,94,0.00,,,0.00,Wunderground v.1.15,2013-07-30 04:34:00,
2013-07-30 00:40:00,63.4,61.6,30.15,NW,317,0.0,0.0,94,0.00,,,0.00,Wunderground v.1.15,2013-07-30 04:40:00,
2013-07-30 00:48:00,63.4,61.9,30.15,NW,317,0.0,0.0,95,0.00,,,0.00,Wunderground v.1.15,2013-07-30 04:48:00,
2013-07-30 00:54:00,63.3,61.5,30.15,NW,317,0.0,0.0,94,0.00,,,0.00,Wunderground v.1.15,2013-07-30 04:54:00,
2013-07-30 01:00:00,63.0,61.2,30.14,NW,317,0.0,0.0,94,0.00,,,0.00,Wunderground v.1.15,2013-07-30 05:00:00,
2013-07-30 01:06:00,62.8,61.0,30.14,NW,317,0.0,0.0,94,0.00,,,0.00,Wunderground v.1.15,2013-07-30 05:06:00,
2013-07-30 01:12:00,62.8,61.3,30.14,NW,317,0.0,0.0,95,0.00,,,0.00,Wunderground v.1.15,2013-07-30 05:12:00,
2013-07-30 01:18:00,62.9,61.4,30.15,NW,317,0.0,0.0,95,0.00,,,0.00,Wunderground v.1.15,2013-07-30 05:18:00,
2013-07-30 01:24:00,63.0,61.5,30.14,NW,317,0.0,0.0,95,0.00,,,0.00,Wunderground v.1.15,2013-07-30 05:24:00,
2013-07-30 01:30:00,63.1,61.6,30.14,NW,317,0.0,0.0,95,0.00,,,0.00,Wunderground v.1.15,2013-07-30 05:30:00,
2013-07-30 01:36:00,63.0,61.5,30.14,NW,317,0.0,0.0,95,0.00,,,0.00,Wunderground v.1.15,2013-07-30 05:36:00,
2013-07-30 01:42:00,63.0,61.5,30.14,NW,317,0.0,0.0,95,0.00,,,0.00,Wunderground v.1.15,2013-07-30 05:42:00,
2013-07-30 01:48:00,63.0,61.5,30.14,NW,317,0.0,0.0,95,0.00,,,0.00,Wunderground v.1.15,2013-07-30 05:48:00,
2013-07-30 01:54:00,63.0,61.8,30.14,NW,317,0.0,0.0,96,0.00,,,0.00,Wunderground v.1.15,2013-07-30 05:54:00,
2013-07-30 02:00:00,63.0,61.8,30.13,NW,317,0.0,0.0,96,0.00,,,0.00,Wunderground v.1.15,2013-07-30 06:00:00,
2013-07-30 02:06:00,63.0,61.8,30.13,NW,317,0.0,0.0,96,0.00,,,0.00,Wunderground v.1.15,2013-07-30 06:06:00,
2013-07-30 02:12:00,63.2,62.0,30.14,NW,317,0.0,0.0,96,0.00,,,0.00,Wunderground v.1.15,2013-07-30 06:12:00,
2013-07-30 02:18:00,63.4,62.2,30.14,NW,317,0.0,0.0,96,0.00,,,0.00,Wunderground v.1.15,2013-07-30 06:18:00,
2013-07-30 02:24:00,63.6,62.4,30.14,NW,317,0.0,0.0,96,0.00,,,0.00,Wunderground v.1.15,2013-07-30 06:24:00,
2013-07-30 02:30:00,63.8,62.9,30.14,NW,317,0.0,0.0,97,0.00,,,0.00,Wunderground v.1.15,2013-07-30 06:30:00,
2013-07-30 02:36:00,64.0,63.1,30.14,NW,317,0.0,0.0,97,0.00,,,0.00,Wunderground v.1.15,2013-07-30 06:36:00,
2013-07-30 02:42:00,64.1,62.9,30.14,NW,317,0.0,0.0,96,0.00,,,0.00,Wunderground v.1.15,2013-07-30 06:42:00,
2013-07-30 02:48:00,64.2,63.0,30.13,NW,317,0.0,0.0,96,0.00,,,0.00,Wunderground v.1.15,2013-07-30 06:48:00,
2013-07-30 02:54:00,64.3,63.1,30.14,NW,317,0.0,0.0,96,0.00,,,0.00,Wunderground v.1.15,2013-07-30 06:54:00,
2013-07-30 03:00:00,64.3,63.1,30.14,NW,317,0.0,0.0,96,0.00,,,0.00,Wunderground v.1.15,2013-07-30 07:00:00,
2013-07-30 03:06:00,64.3,63.1,30.14,NW,317,0.0,0.0,96,0.00,,,0.00,Wunderground v.1.15,2013-07-30 07:06:00,
2013-07-30 03:12:00,64.3,63.1,30.13,NW,317,0.0,0.0,96,0.00,,,0.00,Wunderground v.1.15,2013-07-30 07:12:00,
2013-07-30 03:18:00,64.3,63.1,30.13,NW,317,0.0,0.0,96,0.00,,,0.00,Wunderground v.1.15,2013-07-30 07:18:00,
2013-07-30 03:24:00,64.2,63.0,30.13,NW,317,0.0,0.0,96,0.00,,,0.00,Wunderground v.1.15,2013-07-30 07:24:00,
2013-07-30 03:30:00,64.2,63.0,30.14,NW,317,0.0,0.0,96,0.00,,,0.00,Wunderground v.1.15,2013-07-30 07:30:00,
2013-07-30 03:36:00,64.2,63.0,30.14,NW,317,0.0,0.0,96,0.00,,,0.00,Wunderground v.1.15,2013-07-30 07:36:00,
2013-07-30 03:42:00,64.2,63.0,30.14,NW,317,0.0,0.0,96,0.00,,,0.00,Wunderground v.1.15,2013-07-30 07:42:00,
2013-07-30 03:48:00,64.2,63.0,30.14,NW,317,0.0,0.0,96,0.00,,,0.00,Wunderground v.1.15,2013-07-30 07:48:00,
2013-07-30 03:54:00,64.1,62.9,30.14,NW,317,0.0,0.0,96,0.00,,,0.00,Wunderground v.1.15,2013-07-30 07:54:00,
2013-07-30 04:00:00,64.2,63.0,30.13,NW,317,0.0,0.0,96,0.00,,,0.00,Wunderground v.1.15,2013-07-30 08:00:00,
2013-07-30 04:06:00,64.2,63.0,30.14,NW,317,0.0,0.0,96,0.00,,,0.00,Wunderground v.1.15,2013-07-30 08:06:00,
2013-07-30 04:12:00,64.3,63.1,30.14,NW,317,0.0,0.0,96,0.00,,,0.00,Wunderground v.1.15,2013-07-30 08:12:00,
2013-07-30 04:18:00,64.3,63.4,30.14,NW,317,0.0,0.0,97,0.00,,,0.00,Wunderground v.1.15,2013-07-30 08:18:00,
2013-07-30 04:24:00,64.4,63.5,30.14,NW,317,0.0,0.0,97,0.00,,,0.00,Wunderground v.1.15,2013-07-30 08:24:00,
2013-07-30 04:30:00,64.3,63.1,30.14,NW,317,0.0,0.0,96,0.00,,,0.00,Wunderground v.1.15,2013-07-30 08:30:00,
2013-07-30 04:36:00,64.3,63.1,30.13,NW,317,0.0,0.0,96,0.00,,,0.00,Wunderground v.1.15,2013-07-30 08:36:00,
2013-07-30 04:42:00,64.3,63.4,30.14,NW,317,0.0,0.0,97,0.00,,,0.00,Wunderground v.1.15,2013-07-30 08:42:00,
2013-07-30 04:48:00,64.3,63.1,30.14,NW,317,0.0,0.0,96,0.00,,,0.00,Wunderground v.1.15,2013-07-30 08:48:00,
2013-07-30 04:54:00,64.2,63.0,30.14,NW,317,0.0,0.0,96,0.00,,,0.00,Wunderground v.1.15,2013-07-30 08:54:00,
2013-07-30 05:00:00,64.2,63.0,30.14,NW,317,0.0,0.0,96,0.00,,,0.00,Wunderground v.1.15,2013-07-30 09:00:00,
2013-07-30 05:08:00,64.2,63.0,30.14,NW,317,0.0,0.0,96,0.00,,,0.00,Wunderground v.1.15,2013-07-30 09:08:00,
2013-07-30 05:14:00,64.2,63.0,30.14,NW,317,0.0,0.0,96,0.00,,,0.00,Wunderground v.1.15,2013-07-30 09:14:00,
2013-07-30 05:20:00,64.1,62.9,30.14,NW,317,0.0,0.0,96,0.00,,,0.00,Wunderground v.1.15,2013-07-30 09:20:00,
2013-07-30 05:26:00,64.1,62.9,30.15,NW,317,0.0,0.0,96,0.00,,,0.00,Wunderground v.1.15,2013-07-30 09:26:00,
2013-07-30 05:32:00,64.1,62.9,30.14,NW,317,0.0,0.0,96,0.00,,,0.00,Wunderground v.1.15,2013-07-30 09:32:00,
2013-07-30 05:38:00,64.1,62.9,30.14,NW,317,0.0,0.0,96,0.00,,,0.00,Wunderground v.1.15,2013-07-30 09:38:00,
2013-07-30 05:44:00,64.0,63.1,30.15,NW,317,0.0,0.0,97,0.00,,,0.00,Wunderground v.1.15,2013-07-30 09:44:00,
2013-07-30 05:50:00,64.0,62.8,30.15,NW,317,0.0,0.0,96,0.00,,,0.00,Wunderground v.1.15,2013-07-30 09:50:00,
2013-07-30 05:56:00,64.0,63.1,30.14,NW,317,0.0,0.0,97,0.00,,,0.00,Wunderground v.1.15,2013-07-30 09:56:00,
2013-07-30 06:02:00,64.0,63.1,30.14,NW,317,0.0,0.0,97,0.00,,,0.00,Wunderground v.1.15,2013-07-30 10:02:00,
2013-07-30 06:08:00,63.9,62.7,30.14,NW,317,0.0,0.0,96,0.00,,,0.00,Wunderground v.1.15,2013-07-30 10:08:00,
2013-07-30 06:14:00,63.8,62.6,30.14,NW,317,0.0,0.0,96,0.00,,,0.00,Wunderground v.1.15,2013-07-30 10:14:00,
2013-07-30 06:20:00,63.8,62.6,30.15,NW,317,0.0,0.0,96,0.00,,,0.00,Wunderground v.1.15,2013-07-30 10:20:00,
2013-07-30 06:26:00,63.7,62.5,30.15,NW,317,0.0,0.0,96,0.00,,,0.00,Wunderground v.1.15,2013-07-30 10:26:00,
2013-07-30 06:32:00,63.7,62.5,30.15,NNE,22,0.0,0.0,96,0.00,,,0.00,Wunderground v.1.15,2013-07-30 10:32:00,
2013-07-30 06:38:00,63.6,62.4,30.15,NNE,22,0.0,0.0,96,0.00,,,0.00,Wunderground v.1.15,2013-07-30 10:38:00,
2013-07-30 06:44:00,63.6,62.4,30.15,NNE,22,0.0,0.0,96,0.00,,,0.00,Wunderground v.1.15,2013-07-30 10:44:00,
2013-07-30 06:50:00,63.6,62.4,30.15,NNE,22,0.0,0.0,96,0.00,,,0.00,Wunderground v.1.15,2013-07-30 10:50:00,
2013-07-30 06:56:00,63.6,62.4,30.15,NNE,21,0.0,0.0,96,0.00,,,0.00,Wunderground v.1.15,2013-07-30 10:56:00,
2013-07-30 07:02:00,63.6,62.4,30.15,NNE,21,0.0,0.0,96,0.00,,,0.00,Wunderground v.1.15,2013-07-30 11:02:00,
2013-07-30 07:08:00,63.7,62.5,30.15,NNE,21,0.0,0.0,96,0.00,,,0.00,Wunderground v.1.15,2013-07-30 11:08:00,
2013-07-30 07:14:00,63.8,62.9,30.15,NNE,21,0.0,0.0,97,0.00,,,0.00,Wunderground v.1.15,2013-07-30 11:14:00,
2013-07-30 07:20:00,63.8,62.9,30.15,NNE,21,1.0,1.0,97,0.00,,,0.00,Wunderground v.1.15,2013-07-30 11:20:00,
2013-07-30 07:26:00,63.9,62.7,30.15,NNE,21,1.0,2.0,96,0.00,,,0.00,Wunderground v.1.15,2013-07-30 11:26:00,
2013-07-30 07:32:00,63.9,62.7,30.14,NNE,21,1.0,1.0,96,0.00,,,0.00,Wunderground v.1.15,2013-07-30 11:32:00,
2013-07-30 07:38:00,63.8,62.6,30.14,NNE,21,0.0,1.0,96,0.00,,,0.00,Wunderground v.1.15,2013-07-30 11:38:00,
2013-07-30 07:44:00,63.8,62.6,30.14,NNE,21,0.0,0.0,96,0.00,,,0.00,Wunderground v.1.15,2013-07-30 11:44:00,
2013-07-30 07:50:00,63.8,62.6,30.14,NNE,21,0.0,0.0,96,0.00,,,0.00,Wunderground v.1.15,2013-07-30 11:50:00,
2013-07-30 07:56:00,63.9,62.7,30.14,NNE,24,0.0,0.0,96,0.00,,,0.00,Wunderground v.1.15,2013-07-30 11:56:00,
2013-07-30 08:02:00,64.0,62.8,30.15,NNE,24,0.0,0.0,96,0.00,,,0.00,Wunderground v.1.15,2013-07-30 12:02:00,
2013-07-30 08:08:00,64.1,62.9,30.14,NNE,24,0.0,0.0,96,0.00,,,0.00,Wunderground v.1.15,2013-07-30 12:08:00,
2013-07-30 08:14:00,64.1,62.9,30.15,NNE,24,0.0,0.0,96,0.00,,,0.00,Wunderground v.1.15,2013-07-30 12:14:00,
2013-07-30 08:20:00,64.2,63.0,30.14,NNE,24,0.0,0.0,96,0.00,,,0.00,Wunderground v.1.15,2013-07-30 12:20:00,
2013-07-30 08:26:00,64.3,63.1,30.15,NNE,24,0.0,0.0,96,0.00,,,0.00,Wunderground v.1.15,2013-07-30 12:26:00,
2013-07-30 08:32:00,64.4,63.2,30.14,NNE,24,0.0,0.0,96,0.00,,,0.00,Wunderground v.1.15,2013-07-30 12:32:00,
2013-07-30 08:34:00,64.4,63.2,30.14,NNE,24,0.0,0.0,96,0.00,,,0.00,Wunderground v.1.15,2013-07-30 12:34:00,
2013-07-30 08:40:00,64.6,63.4,30.15,NNE,24,0.0,0.0,96,0.00,,,0.00,Wunderground v.1.15,2013-07-30 12:40:00,
2013-07-30 08:46:00,64.6,63.4,30.15,NNE,24,0.0,0.0,96,0.00,,,0.00,Wunderground v.1.15,2013-07-30 12:46:00,
2013-07-30 08:52:00,64.7,63.5,30.15,NNE,24,0.0,0.0,96,0.00,,,0.00,Wunderground v.1.15,2013-07-30 12:52:00,
2013-07-30 08:58:00,64.9,63.7,30.15,NNE,24,0.0,0.0,96,0.00,,,0.00,Wunderground v.1.15,2013-07-30 12:58:00,
2013-07-30 09:04:00,65.1,63.9,30.15,NNE,24,0.0,2.0,96,0.00,,,0.00,Wunderground v.1.15,2013-07-30 13:04:00,
2013-07-30 09:10:00,65.3,64.1,30.15,NNE,24,0.0,0.0,96,0.00,,,0.00,Wunderground v.1.15,2013-07-30 13:10:00,
2013-07-30 09:16:00,65.4,63.9,30.15,NNE,24,0.0,0.0,95,0.00,,,0.00,Wunderground v.1.15,2013-07-30 13:16:00,
2013-07-30 09:22:00,65.5,64.0,30.15,NNE,24,1.0,2.0,95,0.00,,,0.00,Wunderground v.1.15,2013-07-30 13:22:00,
2013-07-30 09:28:00,65.7,64.2,30.15,NNE,24,1.0,2.0,95,0.00,,,0.00,Wunderground v.1.15,2013-07-30 13:28:00,
2013-07-30 09:34:00,65.9,64.4,30.15,NNE,24,1.0,3.0,95,0.00,,,0.00,Wunderground v.1.15,2013-07-30 13:34:00,
2013-07-30 09:40:00,65.9,64.1,30.15,NNE,24,1.0,1.0,94,0.00,,,0.00,Wunderground v.1.15,2013-07-30 13:40:00,
2013-07-30 09:48:00,66.1,64.3,30.15,NNE,24,0.0,2.0,94,0.00,,,0.00,Wunderground v.1.15,2013-07-30 13:48:00,
2013-07-30 09:54:00,66.4,64.3,30.15,NNE,24,0.0,0.0,93,0.00,,,0.00,Wunderground v.1.15,2013-07-30 13:54:00,
2013-07-30 10:00:00,66.6,64.5,30.15,NNE,24,1.0,1.0,93,0.00,,,0.00,Wunderground v.1.15,2013-07-30 14:00:00,
2013-07-30 10:06:00,66.9,64.8,30.15,NNE,24,2.0,2.0,93,0.00,,,0.00,Wunderground v.1.15,2013-07-30 14:06:00,
2013-07-30 10:12:00,67.2,64.8,30.15,East,81,1.0,2.0,92,0.00,,,0.00,Wunderground v.1.15,2013-07-30 14:12:00,
2013-07-30 10:18:00,67.4,65.0,30.15,East,81,1.0,2.0,92,0.00,,,0.00,Wunderground v.1.15,2013-07-30 14:18:00,
2013-07-30 10:24:00,67.6,64.9,30.15,East,81,1.0,3.0,91,0.00,,,0.00,Wunderground v.1.15,2013-07-30 14:24:00,
2013-07-30 10:30:00,67.7,65.0,30.14,ENE,57,2.0,2.0,91,0.00,,,0.00,Wunderground v.1.15,2013-07-30 14:30:00,
2013-07-30 10:36:00,68.0,65.3,30.14,East,93,2.0,2.0,91,0.00,,,0.00,Wunderground v.1.15,2013-07-30 14:36:00,
2013-07-30 10:42:00,68.3,65.6,30.14,East,84,2.0,2.0,91,0.00,,,0.00,Wunderground v.1.15,2013-07-30 14:42:00,
2013-07-30 10:48:00,68.5,65.4,30.14,East,84,2.0,3.0,90,0.00,,,0.00,Wunderground v.1.15,2013-07-30 14:48:00,
2013-07-30 10:54:00,68.8,66.1,30.14,East,84,2.0,2.0,91,0.00,,,0.00,Wunderground v.1.15,2013-07-30 14:54:00,
2013-07-30 11:00:00,69.0,65.9,30.14,East,84,2.0,3.0,90,0.00,,,0.00,Wunderground v.1.15,2013-07-30 15:00:00,
2013-07-30 11:06:00,69.2,65.8,30.14,East,84,3.0,3.0,89,0.00,,,0.00,Wunderground v.1.15,2013-07-30 15:06:00,
2013-07-30 11:12:00,69.5,66.1,30.14,East,84,3.0,3.0,89,0.00,,,0.00,Wunderground v.1.15,2013-07-30 15:12:00,
2013-07-30 11:18:00,69.9,66.2,30.14,East,85,3.0,3.0,88,0.00,,,0.00,Wunderground v.1.15,2013-07-30 15:18:00,
2013-07-30 11:24:00,70.3,66.6,30.14,ESE,109,3.0,5.0,88,0.00,,,0.00,Wunderground v.1.15,2013-07-30 15:24:00,
2013-07-30 11:30:00,70.8,66.7,30.14,ESE,109,2.0,3.0,87,0.00,,,0.00,Wunderground v.1.15,2013-07-30 15:30:00,
2013-07-30 11:36:00,71.3,66.9,30.14,East,96,2.0,5.0,86,0.00,,,0.00,Wunderground v.1.15,2013-07-30 15:36:00,
2013-07-30 11:42:00,71.9,66.8,30.14,SSE,155,3.0,4.0,84,0.00,,,0.00,Wunderground v.1.15,2013-07-30 15:42:00,
2013-07-30 11:48:00,72.6,67.1,30.14,East,98,4.0,5.0,83,0.00,,,0.00,Wunderground v.1.15,2013-07-30 15:48:00,
2013-07-30 11:54:00,73.3,66.8,30.14,ESE,106,4.0,7.0,80,0.00,,,0.00,Wunderground v.1.15,2013-07-30 15:54:00,
2013-07-30 12:00:00,74.1,67.9,30.14,SE,129,5.0,5.0,81,0.00,,,0.00,Wunderground v.1.15,2013-07-30 16:00:00,
2013-07-30 12:06:00,74.6,66.9,30.14,ESE,109,5.0,7.0,77,0.00,,,0.00,Wunderground v.1.15,2013-07-30 16:06:00,
2013-07-30 12:12:00,75.1,67.8,30.13,SE,128,4.0,5.0,78,0.00,,,0.00,Wunderground v.1.15,2013-07-30 16:12:00,
2013-07-30 12:18:00,76.0,66.3,30.13,ESE,121,3.0,5.0,72,0.00,,,0.00,Wunderground v.1.15,2013-07-30 16:18:00,
2013-07-30 12:24:00,76.2,66.5,30.13,SE,130,5.0,5.0,72,0.00,,,0.00,Wunderground v.1.15,2013-07-30 16:24:00,
2013-07-30 12:30:00,76.3,67.4,30.13,WSW,252,4.0,4.0,74,0.00,,,0.00,Wunderground v.1.15,2013-07-30 16:30:00,
2013-07-30 12:38:00,76.9,66.8,30.13,SSW,193,4.0,6.0,71,0.00,,,0.00,Wunderground v.1.15,2013-07-30 16:38:00,
2013-07-30 12:44:00,77.0,66.5,30.13,SE,144,4.0,7.0,70,0.00,,,0.00,Wunderground v.1.15,2013-07-30 16:44:00,
2013-07-30 12:50:00,76.9,66.0,30.13,SSE,157,5.0,5.0,69,0.00,,,0.00,Wunderground v.1.15,2013-07-30 16:50:00,
2013-07-30 12:56:00,77.0,66.9,30.13,South,173,5.0,5.0,71,0.00,,,0.00,Wunderground v.1.15,2013-07-30 16:56:00,
2013-07-30 13:02:00,77.0,65.6,30.12,ESE,119,4.0,10.0,68,0.00,,,0.00,Wunderground v.1.15,2013-07-30 17:02:00,
2013-07-30 13:08:00,76.9,66.4,30.12,SE,125,4.0,10.0,70,0.00,,,0.00,Wunderground v.1.15,2013-07-30 17:08:00,
2013-07-30 13:14:00,76.9,65.5,30.12,SSW,194,4.0,7.0,68,0.00,,,0.00,Wunderground v.1.15,2013-07-30 17:14:00,
2013-07-30 13:20:00,77.1,64.9,30.12,SSE,163,4.0,5.0,66,0.00,,,0.00,Wunderground v.1.15,2013-07-30 17:20:00,
2013-07-30 13:26:00,77.0,65.2,30.12,ESE,113,5.0,8.0,67,0.00,,,0.00,Wunderground v.1.15,2013-07-30 17:26:00,
2013-07-30 13:32:00,76.9,65.1,30.12,SSE,168,4.0,5.0,67,0.00,,,0.00,Wunderground v.1.15,2013-07-30 17:32:00,
2013-07-30 13:38:00,77.1,64.4,30.12,SW,216,4.0,6.0,65,0.00,,,0.00,Wunderground v.1.15,2013-07-30 17:38:00,
2013-07-30 13:44:00,77.3,64.6,30.12,SE,134,5.0,6.0,65,0.00,,,0.00,Wunderground v.1.15,2013-07-30 17:44:00,
2013-07-30 13:50:00,77.2,65.4,30.12,SSW,195,4.0,4.0,67,0.00,,,0.00,Wunderground v.1.15,2013-07-30 17:50:00,
2013-07-30 13:56:00,76.8,65.4,30.12,SE,140,3.0,6.0,68,0.00,,,0.00,Wunderground v.1.15,2013-07-30 17:56:00,
2013-07-30 14:02:00,76.4,65.1,30.12,South,177,3.0,5.0,68,0.00,,,0.00,Wunderground v.1.15,2013-07-30 18:02:00,
2013-07-30 14:08:00,76.2,65.3,30.13,South,176,2.0,5.0,69,0.00,,,0.00,Wunderground v.1.15,2013-07-30 18:08:00,
2013-07-30 14:14:00,76.2,65.7,30.12,SE,128,2.0,2.0,70,0.00,,,0.00,Wunderground v.1.15,2013-07-30 18:14:00,
2013-07-30 14:20:00,76.1,66.4,30.12,SE,134,2.0,3.0,72,0.00,,,0.00,Wunderground v.1.15,2013-07-30 18:20:00,
2013-07-30 14:26:00,75.9,65.4,30.12,SSE,163,2.0,4.0,70,0.00,,,0.00,Wunderground v.1.15,2013-07-30 18:26:00,
2013-07-30 14:32:00,75.7,65.6,30.12,SW,232,2.0,3.0,71,0.00,,,0.00,Wunderground v.1.15,2013-07-30 18:32:00,
2013-07-30 14:38:00,75.4,65.3,30.12,SE,134,2.0,4.0,71,0.00,,,0.00,Wunderground v.1.15,2013-07-30 18:38:00,
2013-07-30 14:44:00,75.0,65.4,30.12,SE,140,3.0,5.0,72,0.00,,,0.00,Wunderground v.1.15,2013-07-30 18:44:00,
2013-07-30 14:50:00,74.6,65.4,30.11,SSE,167,3.0,3.0,73,0.00,,,0.00,Wunderground v.1.15,2013-07-30 18:50:00,
2013-07-30 14:56:00,74.3,65.1,30.12,South,190,2.0,3.0,73,0.00,,,0.00,Wunderground v.1.15,2013-07-30 18:56:00,
2013-07-30 15:02:00,74.0,65.6,30.11,South,184,2.0,2.0,75,0.00,,,0.00,Wunderground v.1.15,2013-07-30 19:02:00,
2013-07-30 15:08:00,73.8,65.8,30.11,South,184,1.0,3.0,76,0.00,,,0.00,Wunderground v.1.15,2013-07-30 19:08:00,
2013-07-30 15:14:00,73.5,65.8,30.11,South,184,1.0,3.0,77,0.00,,,0.00,Wunderground v.1.15,2013-07-30 19:14:00,
2013-07-30 15:20:00,73.2,66.3,30.11,SE,128,1.0,1.0,79,0.00,,,0.00,Wunderground v.1.15,2013-07-30 19:20:00,
2013-07-30 15:26:00,72.9,66.4,30.11,SSE,159,1.0,3.0,80,0.00,,,0.00,Wunderground v.1.15,2013-07-30 19:26:00,
2013-07-30 15:32:00,72.7,66.2,30.11,SSE,163,1.0,1.0,80,0.00,,,0.00,Wunderground v.1.15,2013-07-30 19:32:00,
2013-07-30 15:38:00,72.4,66.6,30.11,SSE,163,0.0,1.0,82,0.00,,,0.00,Wunderground v.1.15,2013-07-30 19:38:00,
2013-07-30 15:44:00,72.1,66.6,30.11,SSE,163,0.0,0.0,83,0.00,,,0.01,Wunderground v.1.15,2013-07-30 19:44:00,
2013-07-30 15:50:00,71.6,66.2,30.11,SE,138,2.0,2.0,83,0.00,,,0.01,Wunderground v.1.15,2013-07-30 19:50:00,
2013-07-30 15:56:00,71.2,66.5,30.10,SSE,150,3.0,3.0,85,0.05,,,0.02,Wunderground v.1.15,2013-07-30 19:56:00,
2013-07-30 16:02:00,70.9,66.8,30.10,SSE,150,2.0,3.0,87,0.05,,,0.02,Wunderground v.1.15,2013-07-30 20:02:00,
2013-07-30 16:08:00,70.8,67.1,30.10,SSE,150,1.0,3.0,88,0.04,,,0.02,Wunderground v.1.15,2013-07-30 20:08:00,
2013-07-30 16:14:00,70.6,66.9,30.09,SSE,150,1.0,1.0,88,0.00,,,0.02,Wunderground v.1.15,2013-07-30 20:14:00,
2013-07-30 16:20:00,70.4,67.0,30.09,South,184,1.0,2.0,89,0.00,,,0.02,Wunderground v.1.15,2013-07-30 20:20:00,
2013-07-30 16:26:00,70.3,66.9,30.10,South,184,0.0,2.0,89,0.00,,,0.02,Wunderground v.1.15,2013-07-30 20:26:00,
2013-07-30 16:32:00,70.2,67.1,30.10,SE,138,0.0,1.0,90,0.00,,,0.02,Wunderground v.1.15,2013-07-30 20:32:00,
2013-07-30 16:38:00,70.1,67.0,30.10,SE,138,1.0,1.0,90,0.00,,,0.03,Wunderground v.1.15,2013-07-30 20:38:00,
2013-07-30 16:44:00,69.9,67.2,30.10,SE,138,1.0,3.0,91,0.00,,,0.03,Wunderground v.1.15,2013-07-30 20:44:00,
2013-07-30 16:50:00,69.6,66.5,30.10,SE,138,1.0,1.0,90,0.00,,,0.03,Wunderground v.1.15,2013-07-30 20:50:00,
2013-07-30 16:56:00,69.4,66.7,30.10,SE,138,1.0,1.0,91,0.00,,,0.03,Wunderground v.1.15,2013-07-30 20:56:00,
2013-07-30 17:02:00,69.3,66.9,30.09,SE,138,0.0,0.0,92,0.00,,,0.04,Wunderground v.1.15,2013-07-30 21:02:00,
2013-07-30 17:08:00,69.1,66.7,30.09,SE,138,1.0,2.0,92,0.00,,,0.04,Wunderground v.1.15,2013-07-30 21:08:00,
2013-07-30 17:14:00,69.0,66.9,30.09,SE,138,2.0,2.0,93,0.04,,,0.05,Wunderground v.1.15,2013-07-30 21:14:00,
2013-07-30 17:20:00,69.1,67.0,30.09,SE,138,1.0,1.0,93,0.04,,,0.05,Wunderground v.1.15,2013-07-30 21:20:00,
2013-07-30 17:26:00,69.2,67.4,30.08,East,86,2.0,2.0,94,0.06,,,0.06,Wunderground v.1.15,2013-07-30 21:26:00,
2013-07-30 17:32:00,69.2,67.4,30.08,East,89,2.0,3.0,94,0.06,,,0.06,Wunderground v.1.15,2013-07-30 21:32:00,
2013-07-30 17:38:00,69.2,67.4,30.08,East,89,3.0,3.0,94,0.04,,,0.06,Wunderground v.1.15,2013-07-30 21:38:00,
2013-07-30 17:44:00,69.1,67.3,30.08,ESE,115,3.0,3.0,94,0.00,,,0.06,Wunderground v.1.15,2013-07-30 21:44:00,
2013-07-30 17:50:00,69.1,67.3,30.09,ESE,115,2.0,3.0,94,0.00,,,0.07,Wunderground v.1.15,2013-07-30 21:50:00,
2013-07-30 17:56:00,69.2,67.7,30.09,ESE,116,2.0,3.0,95,0.00,,,0.07,Wunderground v.1.15,2013-07-30 21:56:00,
2013-07-30 18:02:00,69.3,67.8,30.08,ESE,116,2.0,3.0,95,0.00,,,0.07,Wunderground v.1.15,2013-07-30 22:02:00,
2013-07-30 18:08:00,69.4,67.9,30.09,SSE,159,2.0,3.0,95,0.00,,,0.07,Wunderground v.1.15,2013-07-30 22:08:00,
2013-07-30 18:14:00,69.4,67.9,30.08,South,175,3.0,4.0,95,0.00,,,0.07,Wunderground v.1.15,2013-07-30 22:14:00,
2013-07-30 18:20:00,69.2,67.7,30.08,SSE,159,3.0,4.0,95,0.00,,,0.07,Wunderground v.1.15,2013-07-30 22:20:00,
2013-07-30 18:26:00,68.8,67.0,30.08,SE,126,5.0,5.0,94,0.00,,,0.07,Wunderground v.1.15,2013-07-30 22:26:00,
2013-07-30 18:32:00,68.6,66.8,30.08,SE,143,4.0,5.0,94,0.00,,,0.08,Wunderground v.1.15,2013-07-30 22:32:00,
2013-07-30 18:38:00,68.5,66.7,30.08,SSE,154,4.0,5.0,94,0.00,,,0.08,Wunderground v.1.15,2013-07-30 22:38:00,
2013-07-30 18:44:00,68.5,67.0,30.07,East,101,3.0,5.0,95,0.00,,,0.08,Wunderground v.1.15,2013-07-30 22:44:00,
2013-07-30 18:50:00,68.5,67.0,30.07,ESE,110,4.0,4.0,95,0.00,,,0.08,Wunderground v.1.15,2013-07-30 22:50:00,
2013-07-30 18:56:00,68.5,67.0,30.07,SE,146,5.0,7.0,95,0.00,,,0.08,Wunderground v.1.15,2013-07-30 22:56:00,
2013-07-30 19:02:00,68.4,66.9,30.07,ESE,114,5.0,5.0,95,0.00,,,0.08,Wunderground v.1.15,2013-07-30 23:02:00,
2013-07-30 19:08:00,68.4,66.9,30.07,East,97,4.0,5.0,95,0.00,,,0.08,Wunderground v.1.15,2013-07-30 23:08:00,
2013-07-30 19:14:00,68.4,66.9,30.06,East,88,3.0,4.0,95,0.00,,,0.08,Wunderground v.1.15,2013-07-30 23:14:00,
2013-07-30 19:20:00,68.4,66.9,30.06,East,82,4.0,4.0,95,0.00,,,0.08,Wunderground v.1.15,2013-07-30 23:20:00,
2013-07-30 19:26:00,68.3,66.8,30.05,ESE,119,4.0,6.0,95,0.00,,,0.08,Wunderground v.1.15,2013-07-30 23:26:00,
2013-07-30 19:32:00,68.2,66.7,30.06,ESE,115,3.0,4.0,95,0.00,,,0.08,Wunderground v.1.15,2013-07-30 23:32:00,
2013-07-30 19:38:00,68.0,66.5,30.05,East,98,4.0,8.0,95,0.00,,,0.08,Wunderground v.1.15,2013-07-30 23:38:00,
2013-07-30 19:44:00,67.9,66.4,30.05,SE,131,4.0,5.0,95,0.00,,,0.08,Wunderground v.1.15,2013-07-30 23:44:00,
2013-07-30 19:50:00,67.9,66.4,30.05,ESE,115,4.0,4.0,95,0.00,,,0.08,Wunderground v.1.15,2013-07-30 23:50:00,
2013-07-30 19:58:00,67.9,66.4,30.06,ESE,120,3.0,4.0,95,0.00,,,0.08,Wunderground v.1.15,2013-07-30 23:58:00,
2013-07-30 20:04:00,67.8,66.3,30.06,ENE,74,3.0,3.0,95,0.00,,,0.08,Wunderground v.1.15,2013-07-31 00:04:00,
2013-07-30 20:10:00,67.8,66.3,30.06,East,86,2.0,2.0,95,0.00,,,0.08,Wunderground v.1.15,2013-07-31 00:10:00,
2013-07-30 20:16:00,67.7,66.2,30.06,SE,130,2.0,3.0,95,0.00,,,0.08,Wunderground v.1.15,2013-07-31 00:16:00,
2013-07-30 20:22:00,67.7,66.2,30.06,SE,128,2.0,3.0,95,0.00,,,0.08,Wunderground v.1.15,2013-07-31 00:22:00,
2013-07-30 20:28:00,67.6,66.1,30.06,ESE,115,2.0,3.0,95,0.00,,,0.08,Wunderground v.1.15,2013-07-31 00:28:00,
2013-07-30 20:34:00,67.6,66.1,30.05,ESE,105,2.0,4.0,95,0.00,,,0.08,Wunderground v.1.15,2013-07-31 00:34:00,
2013-07-30 20:40:00,67.5,66.0,30.06,SE,132,3.0,3.0,95,0.00,,,0.08,Wunderground v.1.15,2013-07-31 00:40:00,
2013-07-30 20:46:00,67.4,65.9,30.06,East,94,2.0,3.0,95,0.00,,,0.08,Wunderground v.1.15,2013-07-31 00:46:00,
2013-07-30 20:52:00,67.4,65.9,30.06,East,94,3.0,5.0,95,0.00,,,0.08,Wunderground v.1.15,2013-07-31 00:52:00,
2013-07-30 20:58:00,67.3,65.8,30.05,ESE,123,3.0,5.0,95,0.00,,,0.08,Wunderground v.1.15,2013-07-31 00:58:00,
2013-07-30 21:04:00,67.2,65.7,30.06,ESE,108,3.0,3.0,95,0.00,,,0.08,Wunderground v.1.15,2013-07-31 01:04:00,
2013-07-30 21:10:00,67.2,65.7,30.05,ESE,119,3.0,7.0,95,0.00,,,0.08,Wunderground v.1.15,2013-07-31 01:10:00,
2013-07-30 21:18:00,67.1,65.6,30.05,East,96,3.0,7.0,95,0.00,,,0.08,Wunderground v.1.15,2013-07-31 01:18:00,
2013-07-30 21:24:00,67.0,65.5,30.06,East,101,4.0,4.0,95,0.00,,,0.08,Wunderground v.1.15,2013-07-31 01:24:00,
2013-07-30 21:30:00,67.0,65.5,30.06,East,90,2.0,2.0,95,0.00,,,0.08,Wunderground v.1.15,2013-07-31 01:30:00,
2013-07-30 21:36:00,67.0,65.5,30.06,East,94,1.0,2.0,95,0.00,,,0.08,Wunderground v.1.15,2013-07-31 01:36:00,
2013-07-30 21:42:00,66.9,65.4,30.05,ESE,110,1.0,3.0,95,0.00,,,0.08,Wunderground v.1.15,2013-07-31 01:42:00,
2013-07-30 21:48:00,66.9,65.4,30.05,ESE,111,1.0,3.0,95,0.00,,,0.08,Wunderground v.1.15,2013-07-31 01:48:00,
2013-07-30 21:54:00,66.8,65.0,30.05,SE,141,1.0,4.0,94,0.00,,,0.08,Wunderground v.1.15,2013-07-31 01:54:00,
2013-07-30 22:00:00,66.9,65.1,30.05,ESE,105,2.0,3.0,94,0.00,,,0.08,Wunderground v.1.15,2013-07-31 02:00:00,
2013-07-30 22:06:00,66.9,65.1,30.05,ESE,102,3.0,6.0,94,0.00,,,0.08,Wunderground v.1.15,2013-07-31 02:06:00,
2013-07-30 22:12:00,66.9,65.1,30.05,East,101,4.0,4.0,94,0.00,,,0.08,Wunderground v.1.15,2013-07-31 02:12:00,
2013-07-30 22:18:00,67.0,65.2,30.06,East,100,4.0,6.0,94,0.00,,,0.08,Wunderground v.1.15,2013-07-31 02:18:00,
2013-07-30 22:24:00,67.1,65.3,30.06,East,100,3.0,5.0,94,0.00,,,0.08,Wunderground v.1.15,2013-07-31 02:24:00,
2013-07-30 22:30:00,67.1,65.3,30.06,ESE,105,3.0,3.0,94,0.00,,,0.08,Wunderground v.1.15,2013-07-31 02:30:00,
2013-07-30 22:36:00,67.0,65.2,30.06,ESE,109,2.0,3.0,94,0.00,,,0.08,Wunderground v.1.15,2013-07-31 02:36:00,
2013-07-30 22:42:00,67.0,65.2,30.06,East,94,3.0,4.0,94,0.00,,,0.08,Wunderground v.1.15,2013-07-31 02:42:00,
2013-07-30 22:48:00,67.1,65.3,30.06,ESE,111,3.0,4.0,94,0.00,,,0.08,Wunderground v.1.15,2013-07-31 02:48:00,
2013-07-30 22:54:00,67.1,65.0,30.06,ESE,106,3.0,5.0,93,0.00,,,0.08,Wunderground v.1.15,2013-07-31 02:54:00,
2013-07-30 23:00:00,67.1,65.0,30.06,East,96,3.0,3.0,93,0.00,,,0.08,Wunderground v.1.15,2013-07-31 03:00:00,
2013-07-30 23:06:00,67.1,65.0,30.06,ESE,121,3.0,5.0,93,0.00,,,0.08,Wunderground v.1.15,2013-07-31 03:06:00,
2013-07-30 23:12:00,67.2,65.1,30.06,East,98,3.0,3.0,93,0.00,,,0.08,Wunderground v.1.15,2013-07-31 03:12:00,
2013-07-30 23:18:00,67.2,65.1,30.06,SE,136,3.0,5.0,93,0.00,,,0.08,Wunderground v.1.15,2013-07-31 03:18:00,
2013-07-30 23:24:00,67.2,65.1,30.06,SE,136,3.0,3.0,93,0.00,,,0.08,Wunderground v.1.15,2013-07-31 03:24:00,
2013-07-30 23:30:00,67.2,65.1,30.06,ESE,113,3.0,3.0,93,0.00,,,0.08,Wunderground v.1.15,2013-07-31 03:30:00,
2013-07-30 23:38:00,67.3,65.2,30.06,East,99,3.0,5.0,93,0.00,,,0.08,Wunderground v.1.15,2013-07-31 03:38:00,
2013-07-30 23:44:00,67.2,65.1,30.06,ESE,108,3.0,5.0,93,0.00,,,0.08,Wunderground v.1.15,2013-07-31 03:44:00,
2013-07-30 23:50:00,67.2,65.1,30.05,ESE,112,3.0,3.0,93,0.00,,,0.08,Wunderground v.1.15,2013-07-31 03:50:00,
2013-07-30 23:56:00,67.1,65.0,30.06,ESE,112,2.0,3.0,93,0.00,,,0.08,Wunderground v.1.15,2013-07-31 03:56:00,